Erie, PA

1:54 AM EST on February 14, 2016 (GMT -0500)
Erie International

Weather History for KERI - March, 2013

Change the Weather History Date:

Sunday, March 3, 2013

  Actual Average Record
Temperature  
Mean Temperature 25 °F 31 °F  
Max Temperature 27 °F 39 °F 75 °F (1974)
Min Temperature 22 °F 24 °F -4 °F (2014)
Degree Days  
Heating Degree Days 40 34  
Month to date heating degree days 117 102  
Since 1 July heating degree days 4211 4467  
Cooling Degree Days 0 0  
Month to date cooling degree days 0 0  
Year to date cooling degree days 0 0  
Moisture  
Dew Point 20 °F    
Average Humidity 81    
Maximum Humidity 88    
Minimum Humidity 74    
Precipitation  
Precipitation 0.11 in 0.10 in 0.71 in (1999)
Month to date precipitation 0.12 0.28  
Year to date precipitation 6.63 5.62  
Snow  
Snow 2.20 in 0.60 in - ()
Month to date snowfall 2.7 1.7  
Since 1 July snowfall 81.9 85.7  
Snow Depth 1.00 in    
Sea Level Pressure  
Sea Level Pressure 29.95 in    
Wind  
Wind Speed 10 mph (WNW)    
Max Wind Speed 16 mph    
Max Gust Speed 24 mph    
Visibility 4 miles    
Events Snow    
T = Trace of Precipitation, MM = Missing Value Source: NWS Daily Summary

Daily Weather History Graph

Daily Weather History Graph

Search for Another Location

Airport or City:

Trip Planner

Search our weather history database for the weather conditions in past years. The results will help you decide how hot, cold, wet, or windy it might be!

Date:

Astronomy

Mar. 03, 2013 Rise Set
Actual Time 6:52 AM EST 6:13 PM EST
Civil Twilight 6:24 AM EST 6:41 PM EST
Nautical Twilight 5:51 AM EST 7:13 PM EST
Astronomical Twilight 5:19 AM EST 7:46 PM EST
Moon No Moon Rise 9:59 AM EST (3/3)
Length of Visible Light 12h 17m
Length of Day
11h 21m
Waning Gibbous, 64% of the Moon is Illuminated
Mar 3
Waning Gibbous
Mar 4
Last Quarter
Mar 11
New
Mar 19
First Quarter
Mar 27
Full

Hourly Weather History & Observations

Time (EST) Temp. Windchill Dew Point Humidity Pressure Visibility Wind Dir Wind Speed Gust Speed Precip Events Conditions
12:51 AM 24.1 °F 13.7 °F 17.1 °F 75% 29.98 in 10.0 mi NNW 10.4 mph 17.3 mph N/A   Overcast
1:51 AM 23.0 °F 15.8 °F 17.1 °F 78% 29.98 in 10.0 mi NNW 5.8 mph - 0.00 in   Overcast
2:51 AM 23.0 °F 13.9 °F 17.1 °F 78% 29.96 in 6.0 mi NW 8.1 mph - 0.00 in Snow Light Snow
3:51 AM 23.0 °F 11.7 °F 17.6 °F 80% 29.92 in 10.0 mi NNW 11.5 mph - N/A   Overcast
4:51 AM 23.0 °F 12.4 °F 18.0 °F 81% 29.95 in 8.0 mi North 10.4 mph - 0.00 in Snow Light Snow
5:14 AM 23.0 °F 13.1 °F 19.4 °F 86% 29.92 in 8.0 mi NNW 9.2 mph - N/A Snow Light Snow
5:51 AM 23.0 °F 15.8 °F 19.0 °F 85% 29.96 in 9.0 mi NNW 5.8 mph - 0.01 in Snow Light Snow
6:51 AM 24.8 °F 16.9 °F 19.4 °F 80% 29.93 in 10.0 mi NW 6.9 mph - N/A   Overcast
7:22 AM 24.8 °F 16.9 °F 21.2 °F 86% 29.93 in 3.0 mi NW 6.9 mph - N/A   Overcast
7:29 AM 24.8 °F 19.1 °F 21.2 °F 86% 29.93 in 1.8 mi NNW 4.6 mph - N/A Snow Light Snow
7:46 AM 24.8 °F 16.9 °F 21.2 °F 86% 29.93 in 1.5 mi WNW 6.9 mph - 0.01 in Snow Light Snow
7:51 AM 25.0 °F 15.5 °F 21.9 °F 88% 29.96 in 1.5 mi NW 9.2 mph - 0.01 in Snow Light Snow
8:00 AM 24.8 °F 15.3 °F 21.2 °F 86% 29.93 in 2.0 mi WNW 9.2 mph - 0.00 in Snow Light Snow
8:51 AM 24.8 °F 14.0 °F 21.2 °F 86% 29.93 in 5.0 mi WNW 11.5 mph - N/A Snow Light Snow
9:08 AM 24.8 °F 15.3 °F 21.2 °F 86% 29.93 in 2.5 mi WNW 9.2 mph 18.4 mph 0.00 in Snow Light Snow
9:23 AM 24.8 °F 14.6 °F 21.2 °F 86% 29.93 in 1.8 mi WNW 10.4 mph - 0.01 in Snow Light Snow
9:47 AM 24.8 °F 16.1 °F 21.2 °F 86% 29.93 in 2.0 mi NW 8.1 mph - 0.01 in Snow Light Snow
9:51 AM 24.1 °F 16.0 °F 21.0 °F 88% 29.96 in 1.8 mi NW 6.9 mph - 0.01 in Snow Light Snow
10:00 AM 24.8 °F 16.1 °F 21.2 °F 86% 29.93 in 2.0 mi NW 8.1 mph - 0.00 in Snow Light Snow
10:16 AM 24.8 °F 16.9 °F 19.4 °F 80% 29.93 in 2.0 mi NW 6.9 mph - 0.01 in Snow Light Snow
10:37 AM 24.8 °F 15.3 °F 19.4 °F 80% 29.93 in 1.8 mi NW 9.2 mph - 0.01 in Snow Light Snow
10:48 AM 24.8 °F 15.3 °F 19.4 °F 80% 29.94 in 2.5 mi NNW 9.2 mph - 0.01 in Snow Light Snow
10:51 AM 24.1 °F 17.0 °F 19.9 °F 84% 29.97 in 2.5 mi NW 5.8 mph - 0.01 in Snow Light Snow
10:57 AM 24.8 °F 15.3 °F 19.4 °F 80% 29.94 in 3.0 mi NNW 9.2 mph - 0.00 in Snow Light Snow
11:33 AM 24.8 °F 16.1 °F 19.4 °F 80% 29.94 in 4.0 mi NW 8.1 mph - 0.00 in Snow Light Snow
11:51 AM 24.1 °F 15.2 °F 19.0 °F 81% 29.97 in 6.0 mi NW 8.1 mph - 0.00 in Snow Light Snow
12:51 PM 24.1 °F 14.4 °F 18.0 °F 77% 29.96 in 4.0 mi NW 9.2 mph - 0.00 in Snow Light Snow
1:22 PM 24.8 °F 16.9 °F 19.4 °F 80% 29.92 in 2.5 mi WNW 6.9 mph - 0.01 in Snow Light Snow
1:34 PM 24.8 °F 16.9 °F 19.4 °F 80% 29.92 in 1.8 mi WNW 6.9 mph - 0.01 in Snow Light Snow
1:48 PM 24.8 °F 16.9 °F 19.4 °F 80% 29.92 in 1.5 mi West 6.9 mph - 0.01 in Snow Light Snow
1:51 PM 25.0 °F 16.3 °F 19.9 °F 81% 29.95 in 1.5 mi West 8.1 mph - 0.01 in Snow Light Snow
2:12 PM 24.8 °F 15.3 °F 21.2 °F 86% 29.92 in 1.2 mi West 9.2 mph - 0.01 in Snow Light Snow
2:45 PM 26.6 °F 15.2 °F 21.2 °F 80% 29.92 in 2.0 mi WNW 13.8 mph 21.9 mph 0.01 in Snow Light Snow
2:51 PM 26.1 °F 14.0 °F 21.0 °F 81% 29.95 in 4.0 mi WNW 15.0 mph 24.2 mph 0.01 in Snow Light Snow
2:58 PM 26.6 °F 15.2 °F 21.2 °F 80% 29.92 in 7.0 mi WNW 13.8 mph - 0.00 in Snow Light Snow
3:20 PM 26.6 °F 15.2 °F 21.2 °F 80% 29.92 in 4.0 mi WNW 13.8 mph 20.7 mph 0.00 in Snow Light Snow
3:51 PM 26.6 °F 15.7 °F 21.2 °F 80% 29.92 in 5.0 mi WNW 12.7 mph 21.9 mph N/A Snow Light Snow
4:16 PM 26.6 °F 15.7 °F 19.4 °F 74% 29.93 in 2.0 mi WNW 12.7 mph 21.9 mph N/A Snow Light Snow
4:23 PM 24.8 °F 14.0 °F 19.4 °F 80% 29.93 in 1.5 mi West 11.5 mph 20.7 mph 0.26 in Snow Light Snow
4:26 PM 24.8 °F 13.4 °F 19.4 °F 80% 29.93 in 2.5 mi WNW 12.7 mph - 0.27 in Snow Light Snow
4:33 PM 24.8 °F 12.9 °F 19.4 °F 80% 29.93 in 4.0 mi WNW 13.8 mph 21.9 mph 0.27 in Snow Light Snow
4:40 PM 24.8 °F 12.4 °F 19.4 °F 80% 29.93 in 6.0 mi WNW 15.0 mph 21.9 mph 0.27 in Snow Light Snow
4:51 PM 25.0 °F 13.6 °F 19.0 °F 78% 29.97 in 7.0 mi West 12.7 mph 21.9 mph 0.27 in Snow Light Snow
5:05 PM 24.8 °F 13.4 °F 19.4 °F 80% 29.94 in 2.0 mi WNW 12.7 mph 19.6 mph 0.00 in Snow Light Snow
5:14 PM 24.8 °F 14.6 °F 19.4 °F 80% 29.94 in 1.5 mi West 10.4 mph 18.4 mph 0.00 in Snow Light Snow
5:42 PM 24.8 °F 12.9 °F 19.4 °F 80% 29.94 in 3.0 mi West 13.8 mph 23.0 mph 0.00 in Snow Light Snow
5:51 PM 25.0 °F 13.1 °F 18.0 °F 75% 29.98 in 6.0 mi West 13.8 mph 23.0 mph 0.00 in Snow Light Snow
6:51 PM 24.1 °F 12.0 °F 18.0 °F 77% 30.00 in 6.0 mi West 13.8 mph 21.9 mph 0.00 in Snow Light Snow
7:23 PM 24.8 °F 14.6 °F 17.6 °F 74% 29.97 in 7.0 mi West 10.4 mph - 0.00 in Snow Light Snow
7:51 PM 24.1 °F 13.1 °F 19.0 °F 81% 30.01 in 4.0 mi WNW 11.5 mph 19.6 mph 0.00 in Snow Light Snow
8:02 PM 24.8 °F 14.6 °F 19.4 °F 80% 29.97 in 2.0 mi West 10.4 mph 16.1 mph 0.00 in Snow Light Snow
8:06 PM 24.8 °F 14.0 °F 19.4 °F 80% 29.98 in 1.8 mi West 11.5 mph - 0.00 in Snow Light Snow
8:22 PM 24.8 °F 14.6 °F 21.2 °F 86% 29.98 in 2.0 mi West 10.4 mph 18.4 mph 0.00 in Snow Light Snow
8:24 PM 24.8 °F 14.6 °F 21.2 °F 86% 29.98 in 1.8 mi West 10.4 mph 18.4 mph 0.00 in Snow Light Snow
8:31 PM 24.8 °F 14.0 °F 21.2 °F 86% 29.98 in 2.0 mi West 11.5 mph - 0.00 in Snow Light Snow
8:51 PM 24.1 °F 13.1 °F 21.0 °F 88% 30.02 in 2.5 mi West 11.5 mph - 0.00 in Snow Light Snow
9:00 PM 24.8 °F 14.0 °F 21.2 °F 86% 29.98 in 3.0 mi West 11.5 mph 18.4 mph 0.00 in Snow Light Snow
9:20 PM 24.8 °F 13.4 °F 21.2 °F 86% 29.99 in 2.5 mi West 12.7 mph - 0.00 in Snow Light Snow
9:34 PM 24.8 °F 15.3 °F 19.4 °F 80% 29.99 in 6.0 mi NW 9.2 mph - 0.00 in Snow Light Snow
9:51 PM 24.1 °F 15.2 °F 18.0 °F 77% 30.02 in 8.0 mi NW 8.1 mph - 0.00 in Snow Light Snow
10:51 PM 23.0 °F 14.7 °F 18.0 °F 81% 30.02 in 9.0 mi WNW 6.9 mph - 0.00 in Snow Light Snow
11:12 PM 23.0 °F 13.9 °F 17.6 °F 80% 29.99 in 6.0 mi NW 8.1 mph - 0.00 in Snow Light Snow
11:51 PM 23.0 °F 13.9 °F 18.0 °F 81% 30.02 in 8.0 mi WNW 8.1 mph - 0.00 in Snow Light Snow